Tracking 30402 objects as of 12-May-2025
HD Live streaming from Space Station
objects crossing your sky now

ONEWEB-0425

Track ONEWEB-0425 now!
10-day predictions
ONEWEB-0425 is classified as:


NORAD ID: 51628
Int'l Code: 2022-012G
Perigee: 1,227.1 km
Apogee: 1,230.6 km
Inclination: 87.9 °
Period: 109.9 minutes
Semi major axis: 7599 km
RCS: Unknown
Launch date: February 10, 2022
Source: United Kingdom (UK)
Launch site: FRENCH GUIANA (FRGUI)
Your satellite tracking list
Your tracking list is empty




NASA's NSSDC Master Catalog

Two Line Element Set (TLE):
1 51628U 22012G   25132.23073865  .00000019  00000-0  19083-4 0  9991
2 51628  87.8801 116.2014 0002282  79.4819 280.6566 13.10377556158109
Source of the keplerian elements: AFSPC